LZ0VRC-10 Weather Reports


time (UTC)temp
F
wind
direction
speed
knots
gust
knots
rain 1hr
in
rain 24hr
in
rain mn
in
humidity
%
barometer
mb
20260507103455 74 0.0 0.0 0.00 0.00 0.00 42 1017.0
20260507101955 73 0.0 0.0 0.00 0.00 0.00 43 1017.1
20260507100455 74 0.0 0.0 0.00 0.00 0.00 42 1017.1
20260507094955 75 0.0 0.0 0.00 0.00 0.00 41 1017.1
20260507093500 76 0.0 0.0 0.00 0.00 0.00 37 1017.1
20260507093455 76 0.0 0.0 0.00 0.00 0.00 37 1017.1
20260507091955 76 0.0 0.0 0.00 0.00 0.00 36 1017.1
20260507090500 74 0.0 0.0 0.00 0.00 0.00 37 1017.0
20260507090455 74 0.0 0.0 0.00 0.00 0.00 37 1017.0
20260507085000 78 0.0 0.0 0.00 0.00 0.00 33 1017.0
20260507084955 78 0.0 0.0 0.00 0.00 0.00 33 1017.0
20260507083500 79 0.0 0.0 0.00 0.00 0.00 32 1017.0
20260507083455 79 0.0 0.0 0.00 0.00 0.00 32 1017.0
20260507081955 75 0.0 0.0 0.00 0.00 0.00 36 1016.9
20260507080455 74 0.0 0.0 0.00 0.00 0.00 37 1016.8
20260507074955 80 0.0 0.0 0.00 0.00 0.00 30 1016.7
20260507073455 80 0.0 0.0 0.00 0.00 0.00 30 1016.7
20260507071955 78 0.0 0.0 0.00 0.00 0.00 32 1016.8
20260507070500 76 0.0 0.0 0.00 0.00 0.00 36 1016.8
20260507070455 76 0.0 0.0 0.00 0.00 0.00 36 1016.8
20260507065000 68 0.0 0.0 0.00 0.00 0.00 45 1016.9
20260507064955 68 0.0 0.0 0.00 0.00 0.00 45 1016.9
20260507063500 68 0.0 0.0 0.00 0.00 0.00 47 1016.9
20260507063455 68 0.0 0.0 0.00 0.00 0.00 47 1016.9
20260507061955 67 0.0 0.0 0.00 0.00 0.00 49 1016.7
20260507060455 67 0.0 0.0 0.00 0.00 0.00 49 1016.5
20260507054955 64 0.0 0.0 0.00 0.00 0.00 52 1016.4
20260507053500 67 0.0 0.0 0.00 0.00 0.00 47 1016.3
20260507053455 67 0.0 0.0 0.00 0.00 0.00 47 1016.3
20260507052000 68 0.0 0.0 0.00 0.00 0.00 44 1015.8
20260507051955 68 0.0 0.0 0.00 0.00 0.00 44 1015.8
20260507050500 67 0.0 0.0 0.00 0.00 0.00 45 1015.7
20260507050455 67 0.0 0.0 0.00 0.00 0.00 45 1015.7
20260507044955 66 0.0 0.0 0.00 0.00 0.00 46 1015.4
20260507043500 66 0.0 0.0 0.00 0.00 0.00 45 1015.4
20260507043455 66 0.0 0.0 0.00 0.00 0.00 45 1015.4
20260507042000 66 0.0 0.0 0.00 0.00 0.00 45 1015.2
20260507041955 66 0.0 0.0 0.00 0.00 0.00 45 1015.2
20260507040500 65 0.0 0.0 0.00 0.00 0.00 46 1015.2
20260507040455 65 0.0 0.0 0.00 0.00 0.00 46 1015.2
20260507035000 62 0.0 0.0 0.00 0.00 0.00 49 1015.0
20260507034955 62 0.0 0.0 0.00 0.00 0.00 49 1015.0
20260507033456 62 0.0 0.0 0.00 0.00 0.00 49 1015.0
20260507031956 66 0.0 0.0 0.00 0.00 0.00 40 1014.4
20260507030456 69 0.0 0.0 0.00 0.00 0.00 37 1014.3
20260507024956 69 0.0 0.0 0.00 0.00 0.00 35 1014.3
20260507023500 68 0.0 0.0 0.00 0.00 0.00 36 1014.2
20260507023456 68 0.0 0.0 0.00 0.00 0.00 36 1014.2
20260507021956 67 0.0 0.0 0.00 0.00 0.00 38 1014.1
20260507020456 66 0.0 0.0 0.00 0.00 0.00 40 1014.1
20260507015001 67 0.0 0.0 0.00 0.00 0.00 39 1014.1
20260507014956 67 0.0 0.0 0.00 0.00 0.00 39 1014.1
20260507013501 69 0.0 0.0 0.00 0.00 0.00 36 1014.0
20260507013456 69 0.0 0.0 0.00 0.00 0.00 36 1014.0
20260507011956 70 0.0 0.0 0.00 0.00 0.00 35 1013.9
20260507010456 69 0.0 0.0 0.00 0.00 0.00 36 1013.8
20260507005001 69 0.0 0.0 0.00 0.00 0.00 35 1013.8
20260507004956 69 0.0 0.0 0.00 0.00 0.00 35 1013.8
20260507003456 71 0.0 0.0 0.00 0.00 0.00 33 1013.7
20260507001956 70 0.0 0.0 0.00 0.00 0.00 34 1013.7
20260507000456 70 0.0 0.0 0.00 0.00 0.00 34 1013.6
20260506234956 67 0.0 0.0 0.00 0.00 0.00 39 1013.8
20260506233501 65 0.0 0.0 0.00 0.00 0.00 42 1013.8
20260506233456 65 0.0 0.0 0.00 0.00 0.00 42 1013.8
20260506231956 71 0.0 0.0 0.00 0.00 0.00 34 1013.7
20260506230501 71 0.0 0.0 0.00 0.00 0.00 33 1013.7
20260506230456 71 0.0 0.0 0.00 0.00 0.00 33 1013.7
20260506225001 72 0.0 0.0 0.00 0.00 0.00 32 1013.6
20260506224956 72 0.0 0.0 0.00 0.00 0.00 32 1013.6
20260506223456 72 0.0 0.0 0.00 0.00 0.00 32 1013.6
20260506221956 71 0.0 0.0 0.00 0.00 0.00 33 1013.7
20260506220501 70 0.0 0.0 0.00 0.00 0.00 34 1013.7
20260506220456 70 0.0 0.0 0.00 0.00 0.00 34 1013.7
20260506215001 64 0.0 0.0 0.00 0.00 0.00 46 1013.9
20260506214956 64 0.0 0.0 0.00 0.00 0.00 46 1013.9
20260506213501 65 0.0 0.0 0.00 0.00 0.00 45 1013.9
20260506213456 65 0.0 0.0 0.00 0.00 0.00 45 1013.9
20260506212001 66 0.0 0.0 0.00 0.00 0.00 42 1013.9
20260506211956 66 0.0 0.0 0.00 0.00 0.00 42 1013.9
20260506210501 65 0.0 0.0 0.00 0.00 0.00 43 1013.9
20260506210456 65 0.0 0.0 0.00 0.00 0.00 43 1013.9
20260506205001 66 0.0 0.0 0.00 0.00 0.00 43 1013.9
20260506204956 66 0.0 0.0 0.00 0.00 0.00 43 1013.9
20260506203501 67 0.0 0.0 0.00 0.00 0.00 42 1013.9
20260506203456 67 0.0 0.0 0.00 0.00 0.00 42 1013.9
20260506201956 68 0.0 0.0 0.00 0.00 0.00 39 1013.8
20260506200456 68 0.0 0.0 0.00 0.00 0.00 38 1013.8
20260506195001 68 0.0 0.0 0.00 0.00 0.00 38 1013.8
20260506194956 68 0.0 0.0 0.00 0.00 0.00 38 1013.8
20260506193501 68 0.0 0.0 0.00 0.00 0.00 40 1013.7
20260506193456 68 0.0 0.0 0.00 0.00 0.00 40 1013.7
20260506192001 68 0.0 0.0 0.00 0.00 0.00 40 1013.7
20260506191956 68 0.0 0.0 0.00 0.00 0.00 40 1013.7
20260506190501 68 0.0 0.0 0.00 0.00 0.00 39 1013.6
20260506190456 68 0.0 0.0 0.00 0.00 0.00 39 1013.6
20260506185001 69 0.0 0.0 0.00 0.00 0.00 39 1013.6
20260506184956 69 0.0 0.0 0.00 0.00 0.00 39 1013.6
20260506183456 69 0.0 0.0 0.00 0.00 0.00 39 1013.5
20260506182001 69 0.0 0.0 0.00 0.00 0.00 38 1013.4
20260506181957 69 0.0 0.0 0.00 0.00 0.00 38 1013.4
20260506180457 70 0.0 0.0 0.00 0.00 0.00 38 1013.1
20260506174957 71 0.0 0.0 0.00 0.00 0.00 36 1013.0
20260506173502 73 0.0 0.0 0.00 0.00 0.00 33 1013.0
20260506173457 73 0.0 0.0 0.00 0.00 0.00 33 1013.0
20260506171957 74 0.0 0.0 0.00 0.00 0.00 31 1012.9
20260506170502 75 0.0 0.0 0.00 0.00 0.00 30 1012.9
20260506170457 75 0.0 0.0 0.00 0.00 0.00 30 1012.9
20260506165011 76 0.0 0.0 0.00 0.00 0.00 30 1012.8
20260506165001 76 0.0 0.0 0.00 0.00 0.00 30 1012.8
20260506164957 76 0.0 0.0 0.00 0.00 0.00 30 1012.8
20260506163457 77 0.0 0.0 0.00 0.00 0.00 29 1012.7
20260506162002 78 0.0 0.0 0.00 0.00 0.00 28 1012.7
20260506161957 78 0.0 0.0 0.00 0.00 0.00 28 1012.7
20260506160502 79 0.0 0.0 0.00 0.00 0.00 27 1012.7
20260506160457 79 0.0 0.0 0.00 0.00 0.00 27 1012.7
20260506155011 78 0.0 0.0 0.00 0.00 0.00 28 1012.8
20260506155002 78 0.0 0.0 0.00 0.00 0.00 28 1012.8
20260506154957 78 0.0 0.0 0.00 0.00 0.00 28 1012.8
20260506153502 83 0.0 0.0 0.00 0.00 0.00 24 1012.8
20260506153457 83 0.0 0.0 0.00 0.00 0.00 24 1012.8
20260506152011 84 0.0 0.0 0.00 0.00 0.00 23 1012.8
20260506152002 84 0.0 0.0 0.00 0.00 0.00 23 1012.8
20260506151957 84 0.0 0.0 0.00 0.00 0.00 23 1012.8
20260506150502 86 0.0 0.0 0.00 0.00 0.00 22 1012.9
20260506150457 86 0.0 0.0 0.00 0.00 0.00 22 1012.9
20260506145011 85 0.0 0.0 0.00 0.00 0.00 23 1013.0
20260506145002 85 0.0 0.0 0.00 0.00 0.00 23 1013.0
20260506144957 85 0.0 0.0 0.00 0.00 0.00 23 1013.0
20260506143502 87 0.0 0.0 0.00 0.00 0.00 22 1013.0
20260506143457 87 0.0 0.0 0.00 0.00 0.00 22 1013.0
20260506142002 87 0.0 0.0 0.00 0.00 0.00 21 1013.1
20260506141957 87 0.0 0.0 0.00 0.00 0.00 21 1013.1
20260506140502 89 0.0 0.0 0.00 0.00 0.00 21 1013.1
20260506140457 89 0.0 0.0 0.00 0.00 0.00 21 1013.1
20260506135002 90 0.0 0.0 0.00 0.00 0.00 21 1013.1
20260506134957 90 0.0 0.0 0.00 0.00 0.00 21 1013.1
20260506133502 88 0.0 0.0 0.00 0.00 0.00 22 1013.2
20260506133457 88 0.0 0.0 0.00 0.00 0.00 22 1013.2
20260506132002 88 0.0 0.0 0.00 0.00 0.00 21 1013.4
20260506131957 88 0.0 0.0 0.00 0.00 0.00 21 1013.4
20260506130502 94 0.0 0.0 0.00 0.00 0.00 17 1013.5
20260506130457 94 0.0 0.0 0.00 0.00 0.00 17 1013.5
20260506124957 92 0.0 0.0 0.00 0.00 0.00 19 1013.5
20260506123502 90 0.0 0.0 0.00 0.00 0.00 20 1013.8
20260506123457 90 0.0 0.0 0.00 0.00 0.00 20 1013.8
20260506122002 89 0.0 0.0 0.00 0.00 0.00 21 1013.9
20260506121957 89 0.0 0.0 0.00 0.00 0.00 21 1013.9
20260506120502 90 0.0 0.0 0.00 0.00 0.00 20 1014.2
20260506120457 90 0.0 0.0 0.00 0.00 0.00 20 1014.2
20260506115005 91 0.0 0.0 0.00 0.00 0.00 20 1014.3
20260506114957 91 0.0 0.0 0.00 0.00 0.00 20 1014.3
20260506113502 93 0.0 0.0 0.00 0.00 0.00 18 1014.5
20260506113457 93 0.0 0.0 0.00 0.00 0.00 18 1014.5
20260506112002 93 0.0 0.0 0.00 0.00 0.00 18 1014.6
20260506111957 93 0.0 0.0 0.00 0.00 0.00 18 1014.6
20260506110502 94 0.0 0.0 0.00 0.00 0.00 17 1014.8
20260506110457 94 0.0 0.0 0.00 0.00 0.00 17 1014.8
20260506105002 91 0.0 0.0 0.00 0.00 0.00 19 1014.9
20260506104957 91 0.0 0.0 0.00 0.00 0.00 19 1014.9